Epoch 2000 Oct. 23.0 TT = JDT 2451840.5 T 2000 Nov. 2.33075 TT MPC q 4.0476046 (2000.0) P Q n 0.08651064 Peri. 88.61663 +0.10693699 -0.99426048 a 5.0631762 Node 355.24092 +0.89591760 +0.09777775 e 0.2005799 Incl. 2.24740 +0.43115673 +0.04342370 P 11.39
m1 = 3.0 + 5 logΔ + 20.0 log r(t - 100)